When you browse on this site, cookies collect data to enhance your experience and personalize the content and advertising you see.
Visit our Privacy Policy to learn more. By continuing to use the site, you agree to this use of cookies and data.
  • In Lithuania
  • List of Countries
  • For 7 days
  • Water Temperature
  • Satellite Maps
  • Weather Map
  • Weather Widgets
  • user-avatar
    Login

    Hourly Weather Durham

    Today, 19 June, Wednesday

    Time Temperature Precipitation Wind Pressure Humidity
    00:00 +13°C° 0 mm 1 mps 752 mmHg 75%
    01:00 +13°C° 0.1 mm 1 mps 752 mmHg 78%
    02:00 +13°C° 0.1 mm 1 mps 751 mmHg 80%
    03:00 +13°C° 0.1 mm 1 mps 751 mmHg 82%
    04:00 +13°C° 0.6 mm 1 mps 751 mmHg 85%
    05:00 +13°C° 0.6 mm 1 mps 750 mmHg 87%
    06:00 +12°C° 0.6 mm 1 mps 750 mmHg 90%
    07:00 +12°C° 0.8 mm 1 mps 750 mmHg 90%
    08:00 +12°C° 0.8 mm 1 mps 750 mmHg 90%
    09:00 +12°C° 0.8 mm 1 mps 750 mmHg 90%
    10:00 +14°C° 0.2 mm 1 mps 750 mmHg 85%
    11:00 +15°C° 0.2 mm 1 mps 750 mmHg 80%
    12:00 +16°C° 0.2 mm 1 mps 750 mmHg 74%
    13:00 +16°C° 0.2 mm 1 mps 749 mmHg 76%
    14:00 +17°C° 0.2 mm 2 mps 749 mmHg 78%
    15:00 +17°C° 0.2 mm 2 mps 749 mmHg 80%
    16:00 +17°C° 0.4 mm 2 mps 749 mmHg 80%
    17:00 +17°C° 0.4 mm 3 mps 749 mmHg 80%
    18:00 +17°C° 0.4 mm 3 mps 748 mmHg 80%
    19:00 +14°C° 0.1 mm 3 mps 749 mmHg 82%
    20:00 +13°C° 0.1 mm 3 mps 749 mmHg 84%
    21:00 +11°C° 0.1 mm 3 mps 749 mmHg 86%
    22:00 +11°C° 0 mm 3 mps 749 mmHg 87%
    23:00 +10°C° 0 mm 3 mps 749 mmHg 88%

    Tomorrow, 20 June, Thursday

    Time Temperature Precipitation Wind Pressure Humidity
    00:00 +10°C° 0 mm 3 mps 749 mmHg 89%
    01:00 +10°C° 0 mm 3 mps 749 mmHg 90%
    02:00 +10°C° 0 mm 3 mps 749 mmHg 91%
    03:00 +10°C° 0 mm 3 mps 749 mmHg 92%
    04:00 +10°C° 0 mm 3 mps 749 mmHg 89%
    05:00 +11°C° 0 mm 4 mps 749 mmHg 87%
    06:00 +11°C° 0 mm 4 mps 749 mmHg 85%
    07:00 +12°C° 0 mm 4 mps 750 mmHg 79%
    08:00 +13°C° 0 mm 5 mps 750 mmHg 73%
    09:00 +13°C° 0 mm 6 mps 750 mmHg 67%
    10:00 +14°C° 0 mm 6 mps 750 mmHg 65%
    11:00 +14°C° 0 mm 6 mps 751 mmHg 64%
    12:00 +15°C° 0 mm 6 mps 751 mmHg 62%
    13:00 +15°C° 0 mm 6 mps 751 mmHg 62%
    14:00 +15°C° 0 mm 7 mps 751 mmHg 61%
    15:00 +15°C° 0 mm 7 mps 752 mmHg 61%
    16:00 +14°C° 0 mm 6 mps 752 mmHg 64%
    17:00 +14°C° 0 mm 6 mps 752 mmHg 68%
    18:00 +13°C° 0 mm 6 mps 752 mmHg 71%
    19:00 +12°C° 0 mm 5 mps 753 mmHg 76%
    20:00 +11°C° 0 mm 4 mps 753 mmHg 81%
    21:00 +9°C° 0 mm 3 mps 753 mmHg 86%
    22:00 +9°C° 0 mm 3 mps 754 mmHg 86%
    23:00 +8°C° 0 mm 3 mps 754 mmHg 87%

    Day after tomorrow, 21 June, Friday

    Time Temperature Precipitation Wind Pressure Humidity
    00:00 +8°C° 0 mm 3 mps 754 mmHg 88%
    01:00 +8°C° 0 mm 3 mps 754 mmHg 88%
    02:00 +8°C° 0 mm 3 mps 754 mmHg 88%
    03:00 +8°C° 0 mm 3 mps 754 mmHg 89%
    04:00 +8°C° 0 mm 3 mps 755 mmHg 87%
    05:00 +9°C° 0 mm 3 mps 755 mmHg 85%
    06:00 +10°C° 0 mm 4 mps 755 mmHg 83%
    07:00 +11°C° 0 mm 4 mps 755 mmHg 77%
    08:00 +12°C° 0 mm 5 mps 756 mmHg 72%
    09:00 +13°C° 0 mm 5 mps 756 mmHg 67%
    10:00 +13°C° 0 mm 5 mps 756 mmHg 64%
    11:00 +14°C° 0 mm 5 mps 757 mmHg 62%
    12:00 +15°C° 0 mm 5 mps 757 mmHg 59%
    13:00 +15°C° 0 mm 5 mps 757 mmHg 59%
    14:00 +15°C° 0 mm 5 mps 758 mmHg 60%
    15:00 +15°C° 0 mm 5 mps 758 mmHg 60%
    16:00 +15°C° 0 mm 5 mps 758 mmHg 63%
    17:00 +14°C° 0 mm 5 mps 758 mmHg 66%
    18:00 +14°C° 0 mm 4 mps 758 mmHg 69%
    19:00 +12°C° 0 mm 4 mps 759 mmHg 74%
    20:00 +11°C° 0 mm 3 mps 759 mmHg 79%
    21:00 +9°C° 0 mm 2 mps 760 mmHg 84%
    22:00 +9°C° 0 mm 2 mps 760 mmHg 84%
    23:00 +8°C° 0 mm 2 mps 760 mmHg 84%

    22 June, Saturday

    Time Temperature Precipitation Wind Pressure Humidity
    00:00 +9°C° 0 mm 1 mps 760 mmHg 85%
    01:00 +8°C° 0 mm 1 mps 760 mmHg 84%
    02:00 +8°C° 0 mm 1 mps 760 mmHg 84%
    03:00 +8°C° 0 mm 1 mps 760 mmHg 84%
    04:00 +8°C° 0 mm 2 mps 759 mmHg 85%
    05:00 +9°C° 0 mm 3 mps 759 mmHg 82%
    06:00 +10°C° 0 mm 3 mps 759 mmHg 80%
    07:00 +12°C° 0 mm 3 mps 759 mmHg 75%
    08:00 +13°C° 0 mm 3 mps 759 mmHg 70%
    09:00 +16°C° 0 mm 3 mps 759 mmHg 65%
    10:00 +17°C° 0 mm 3 mps 759 mmHg 64%
    11:00 +17°C° 0 mm 3 mps 759 mmHg 62%
    12:00 +18°C° 0 mm 3 mps 759 mmHg 61%
    13:00 +18°C° 0.2 mm 3 mps 759 mmHg 63%
    14:00 +18°C° 0.2 mm 3 mps 759 mmHg 65%
    15:00 +18°C° 0.2 mm 3 mps 759 mmHg 67%
    16:00 +18°C° 0.2 mm 3 mps 759 mmHg 69%
    17:00 +18°C° 0.2 mm 2 mps 759 mmHg 71%
    18:00 +19°C° 0.2 mm 1 mps 759 mmHg 74%
    19:00 +16°C° 0.1 mm 1 mps 760 mmHg 77%
    20:00 +15°C° 0.1 mm 1 mps 760 mmHg 81%
    21:00 +14°C° 0.1 mm 1 mps 760 mmHg 84%
    22:00 +13°C° 0 mm 1 mps 760 mmHg 85%
    23:00 +12°C° 0 mm 1 mps 760 mmHg 86%

    23 June, Sunday

    Time Temperature Precipitation Wind Pressure Humidity
    00:00 +12°C° 0 mm 1 mps 761 mmHg 87%
    01:00 +10°C° 0 mm 0 mps 761 mmHg 88%
    02:00 +10°C° 0 mm 0 mps 761 mmHg 88%
    03:00 +10°C° 0 mm 0 mps 761 mmHg 89%
    04:00 +11°C° 0 mm 0 mps 761 mmHg 88%
    05:00 +12°C° 0 mm 0 mps 761 mmHg 87%
    06:00 +13°C° 0 mm 0 mps 761 mmHg 86%
    07:00 +15°C° 0 mm 1 mps 761 mmHg 82%
    08:00 +16°C° 0 mm 2 mps 761 mmHg 77%
    09:00 +17°C° 0 mm 2 mps 762 mmHg 73%
    10:00 +18°C° 0.1 mm 3 mps 762 mmHg 72%
    11:00 +18°C° 0.1 mm 3 mps 762 mmHg 70%
    12:00 +19°C° 0.1 mm 4 mps 762 mmHg 69%
    13:00 +18°C° 0.2 mm 4 mps 762 mmHg 70%
    14:00 +18°C° 0.2 mm 4 mps 761 mmHg 72%
    15:00 +17°C° 0.2 mm 5 mps 761 mmHg 73%
    16:00 +16°C° 0 mm 5 mps 761 mmHg 73%
    17:00 +16°C° 0 mm 5 mps 761 mmHg 72%
    18:00 +15°C° 0 mm 5 mps 761 mmHg 72%
    19:00 +14°C° 0 mm 4 mps 762 mmHg 75%
    20:00 +13°C° 0 mm 3 mps 762 mmHg 77%
    21:00 +11°C° 0 mm 3 mps 762 mmHg 80%
    22:00 +12°C° 0 mm 2 mps 762 mmHg 80%
    23:00 +12°C° 0 mm 2 mps 763 mmHg 81%

    24 June, Monday

    Time Temperature Precipitation Wind Pressure Humidity
    00:00 +12°C° 0 mm 2 mps 763 mmHg 81%
    01:00 +11°C° 0 mm 3 mps 763 mmHg 83%
    02:00 +11°C° 0 mm 3 mps 762 mmHg 85%
    03:00 +11°C° 0 mm 3 mps 762 mmHg 87%
    04:00 +11°C° 0 mm 4 mps 762 mmHg 87%
    05:00 +11°C° 0 mm 4 mps 762 mmHg 86%
    06:00 +12°C° 0 mm 5 mps 762 mmHg 85%
    07:00 +12°C° 0 mm 5 mps 762 mmHg 85%
    08:00 +12°C° 0 mm 4 mps 762 mmHg 86%
    09:00 +12°C° 0 mm 4 mps 762 mmHg 86%
    10:00 +12°C° 0.2 mm 4 mps 762 mmHg 87%
    11:00 +12°C° 0.2 mm 5 mps 762 mmHg 88%
    12:00 +12°C° 0.2 mm 5 mps 762 mmHg 89%
    13:00 +12°C° 1.1 mm 5 mps 762 mmHg 91%
    14:00 +12°C° 1.1 mm 5 mps 761 mmHg 93%
    15:00 +11°C° 1.1 mm 6 mps 761 mmHg 95%
    16:00 +11°C° 1.5 mm 6 mps 761 mmHg 96%
    17:00 +11°C° 1.5 mm 6 mps 761 mmHg 96%
    18:00 +11°C° 1.5 mm 7 mps 761 mmHg 97%
    19:00 +11°C° 2.3 mm 7 mps 762 mmHg 97%
    20:00 +11°C° 2.3 mm 7 mps 762 mmHg 97%
    21:00 +11°C° 2.3 mm 8 mps 762 mmHg 97%
    22:00 +11°C° 1.1 mm 7 mps 762 mmHg 96%
    23:00 +11°C° 1.1 mm 7 mps 762 mmHg 96%
    Show more